Weather reports worldwide

Advertisment
Pau, France (7610): temperature & dewpoint: 19.08.2019 08:00:00 - 25.08.2019 08:00:00 (CEST)Pau, France (7610): temperature 5cm: 19.08.2019 08:00:00 - 25.08.2019 08:00:00 (CEST)Pau, France (7610): temperature -20cm & temperature -100cm: 19.08.2019 08:00:00 - 25.08.2019 08:00:00 (CEST)Pau, France (7610): wind speed & gusts: 19.08.2019 08:00:00 - 25.08.2019 08:00:00 (CEST)Pau, France (7610): wind direction: 19.08.2019 08:00:00 - 25.08.2019 08:00:00 (CEST)Pau, France (7610): reduced air pressure: 19.08.2019 08:00:00 - 25.08.2019 08:00:00 (CEST)Pau, France (7610): visibility: 19.08.2019 08:00:00 - 25.08.2019 08:00:00 (CEST)Pau, France (7610): sunshine duration: 19.08.2019 08:00:00 - 25.08.2019 08:00:00 (CEST)Pau, France (7610): precipitation: 19.08.2019 08:00:00 - 25.08.2019 08:00:00 (CEST)
Date & Time tt [°C] td [°C] tt 5cm [°C] tt -20cm [°C] tt -100cm [°C] ff [km/h] ff [kn] fx [km/h] fx [kn] dd ppp [hPa] vv [km] sd [min] rr [mm]
25.08.2019 08:00:00 19,2 18,7 18,9 22,3 20,2 2 1 6 3 ENE 1018,6 3,6 0 0,0
25.08.2019 07:00:00 19,2 18,9 19,2 22,3 20,2 3 2 5 3 NNE 1018,6 3,0 0 0,0
25.08.2019 06:00:00 19,1 18,6 19,3 22,3 20,2 3 1 8 5 NNW 1018,7 4,0 0 0,0
25.08.2019 05:00:00 19,2 18,7 19,3 22,3 20,2 6 3 16 8 N 1018,9 3,4 0 0,0
25.08.2019 04:00:00 19,4 18,7 19,5 22,3 20,2 5 3 9 5 WNW 1018,9 1,8 0 0,0
25.08.2019 03:00:00 20,0 19,0 19,6 22,3 20,2 8 4 13 7 WSW 1018,9 3,5 0 0,0
25.08.2019 02:00:00 20,4 18,7 19,9 22,4 20,2 7 4 18 10 WNW 1018,9 11 0 0,0
25.08.2019 01:00:00 20,5 18,8 20,0 22,3 20,2 9 5 15 8 W 1018,9 11 0 0,0
25.08.2019 00:00:00 20,6 18,7 20,1 22,3 20,2 13 7 21 12 W 1019,0 11 0 0,0
24.08.2019 23:00:00 20,8 18,9 20,0 22,3 20,2 12 6 29 16 WNW 1018,8 11 0 0,0
24.08.2019 22:00:00 21,1 19,2 19,6 22,2 20,2 17 9 28 15 W 1018,5 10 0 0,0
24.08.2019 21:00:00 22,5 19,5 20,5 22,1 20,2 17 9 29 16 WNW 1017,2 12 26 0,0
24.08.2019 20:00:00 26,7 21,2 24,7 21,9 20,2 20 11 29 16 WNW 1016,3 7 60 0,0
24.08.2019 19:00:00 30,7 18,4 30,7 21,8 20,2 6 3 12 7 N 1015,7 20 60 0,0
24.08.2019 18:00:00 31,4 18,4 38,3 21,7 20,2 9 5 15 8 N 1015,7 28 60 0,0
24.08.2019 17:00:00 31,7 18,3 41,7 21,5 20,2 8 4 15 8 N 1015,8 20 60 0,0
24.08.2019 16:00:00 31,6 19,3 43,9 21,4 20,2 6 3 13 7 N 1016,0 27 60 0,0
24.08.2019 15:00:00 31,5 18,8 45,4 21,4 20,2 6 3 18 10 N 1016,2 32 60 0,0
24.08.2019 14:00:00 30,6 18,7 42,9 21,4 20,2 8 4 16 9 NNE 1016,5 31 60 0,0
24.08.2019 13:00:00 30,0 17,1 37,8 21,4 20,2 8 4 15 8 NNE 1016,7 35 60 0,0
24.08.2019 12:00:00 28,9 17,7 32,4 21,4 20,2 6 3 13 7 ESE 1016,8 27 60 0,0
24.08.2019 11:00:00 26,4 16,3 25,5 21,4 20,2 8 5 14 8 ESE 1016,9 20 60 0,0
24.08.2019 10:00:00 23,0 16,8 19,2 21,5 20,2 10 5 14 8 ESE 1017,0 23 60 0,0
24.08.2019 09:00:00 19,9 14,9 13,2 21,6 20,2 7 4 11 6 ESE 1017,3 22 60 0,0
24.08.2019 08:00:00 15,1 13,1 11,9 21,6 20,2 4 2 10 6 SSE 1017,2 23 22 0,0
24.08.2019 07:00:00 15,3 12,8 11,4 21,7 20,2 8 4 11 6 ESE 1017,0 22 0 0,0
24.08.2019 06:00:00 15,5 13,2 11,8 21,8 20,2 8 4 11 6 ESE 1017,1 21 0 0,0
24.08.2019 05:00:00 16,0 13,5 10,8 21,8 20,2 10 5 14 8 ESE 1017,2 21 0 0,2
24.08.2019 04:00:00 15,9 13,6 11,5 21,8 20,2 6 3 14 8 ESE 1017,3 21 0 0,0
24.08.2019 03:00:00 15,6 13,6 11,5 21,9 20,2 6 3 9 5 ESE 1017,3 21 0 0,0
24.08.2019 02:00:00 17,4 14,5 13,5 21,9 20,2 4 2 13 7 ESE 1017,6 20 0 0,0
24.08.2019 01:00:00 18,1 15,5 12,6 21,9 20,2 10 5 11 6 ESE 1017,5 19 0 0,0
24.08.2019 00:00:00 19,7 16,0 14,6 21,8 20,2 7 4 13 7 ESE 1017,6 18 0 0,0
23.08.2019 23:00:00 20,4 17,0 15,3 21,8 20,2 6 4 10 5 ESE 1017,4 22 0 0,0
23.08.2019 22:00:00 20,5 18,1 14,6 21,8 20,2 5 3 9 5 SE 1017,4 23 0 0,0
23.08.2019 21:00:00 24,1 18,1 17,4 21,7 20,2 2 1 8 5 ENE 1016,9 28 27 0,0
23.08.2019 20:00:00 28,0 17,8 22,7 21,6 20,2 6 3 11 6 E 1016,6 27 60 0,0
23.08.2019 19:00:00 29,3 15,4 28,9 21,5 20,3 6 3 16 9 E 1016,8 27 60 0,0
23.08.2019 18:00:00 29,5 17,0 33,6 21,4 20,2 9 5 19 10 E 1017,0 29 60 0,0
23.08.2019 17:00:00 28,8 16,0 33,9 21,2 20,2 9 5 20 11 ENE 1017,4 29 57 0,0
23.08.2019 16:00:00 29,1 17,0 41,9 21,2 20,3 8 4 19 11 ENE 1017,6 40 60 0,0
23.08.2019 15:00:00 28,6 16,5 42,2 21,1 20,2 9 5 22 12 ENE 1018,3 18 60 0,0
23.08.2019 14:00:00 27,7 16,3 41,2 21,0 20,2 10 5 17 9 NE 1018,6 41 60 0,0
23.08.2019 13:00:00 27,6 15,6 35,1 21,1 20,2 8 4 21 11 E 1018,9 46 60 0,0
23.08.2019 12:00:00 26,2 15,9 31,2 21,1 20,2 10 6 22 12 ESE 1019,4 22 60 0,0
23.08.2019 11:00:00 23,6 15,9 23,9 21,2 20,2 6 3 11 6 SE 1019,9 18 60 0,0
23.08.2019 10:00:00 20,0 15,2 18,5 21,3 20,3 4 2 8 4 ESE 1020,2 23 60 0,0
23.08.2019 09:00:00 16,2 14,6 11,1 21,4 20,3 4 2 8 5 E 1020,7 17 60 0,0
23.08.2019 08:00:00 12,9 12,6 8,5 21,4 20,3 3 2 10 5 ESE 1020,9 15 22 0,0
23.08.2019 07:00:00 12,3 11,7 8,4 21,5 20,3 9 5 11 6 ESE 1020,6 14 0 0,0
23.08.2019 06:00:00 12,8 11,9 9,2 21,6 20,3 5 3 11 6 E 1020,7 16 0 0,0
23.08.2019 05:00:00 13,6 12,5 11,4 21,6 20,3 8 4 11 6 ESE 1020,9 19 0 0,0
23.08.2019 04:00:00 13,8 12,7 11,1 21,7 20,3 8 4 12 7 ESE 1021,3 17 0 0,2
23.08.2019 03:00:00 13,8 12,9 10,0 21,7 20,3 7 4 11 6 E 1021,5 17 0 0,0
23.08.2019 02:00:00 14,4 12,9 9,7 21,8 20,3 7 4 10 5 SSE 1021,9 17 0 0,0
23.08.2019 01:00:00 13,9 12,8 9,6 21,8 20,3 5 3 9 5 ESE 1022,1 17 0 0,0
23.08.2019 00:00:00 14,7 13,2 10,1 21,8 20,3 4 2 9 5 SSE 1022,4 20 0 0,0
22.08.2019 23:00:00 15,8 14,2 11,1 21,8 20,3 8 5 10 6 ESE 1022,3 21 0 0,0
22.08.2019 22:00:00 17,7 15,0 11,9 21,7 20,3 3 2 6 3 E 1022,1 28 0 0,0
22.08.2019 21:00:00 20,4 13,6 13,9 21,6 20,3 5 3 8 5 ESE 1021,1 38 29 0,0
22.08.2019 20:00:00 25,0 12,6 19,8 21,5 20,3 4 2 9 5 E 1020,7 32 60 0,0
22.08.2019 19:00:00 25,8 11,2 27,5 21,4 20,3 6 4 14 8 NE 1021,0 31 60 0,0
22.08.2019 18:00:00 26,1 11,8 35,5 21,3 20,3 7 4 17 9 NNW 1021,4 44 60 0,0
22.08.2019 17:00:00 26,0 12,1 37,6 21,2 20,3 6 3 18 10 WNW 1021,7 36 60 0,0
22.08.2019 16:00:00 25,5 10,9 36,9 21,1 20,3 6 4 19 10 W 1022,1 40 60 0,0
22.08.2019 15:00:00 25,2 12,1 38,3 21,0 20,3 9 5 24 13 WNW 1022,5 45 60 0,0
22.08.2019 14:00:00 24,5 14,0 37,4 21,0 20,3 9 5 20 11 NNW 1022,6 42 60 0,0
22.08.2019 13:00:00 23,7 14,9 34,1 21,0 20,3 6 4 19 11 W 1022,9 20 60 0,0
22.08.2019 12:00:00 22,4 16,4 27,8 21,0 20,3 7 4 16 9 WNW 1023,4 20 60 0,0
22.08.2019 11:00:00 20,7 16,3 20,9 21,1 20,3 10 5 16 8 W 1023,5 21 60 0,0
22.08.2019 10:00:00 18,8 15,7 18,0 21,2 20,3 3 1 9 5 SSW 1023,6 28 60 0,0
22.08.2019 09:00:00 16,2 14,0 12,2 21,2 20,3 5 3 11 6 SE 1023,7 21 60 0,0
22.08.2019 08:00:00 13,1 12,2 9,9 21,3 20,3 6 3 10 6 ESE 1023,4 15 21 0,0
22.08.2019 07:00:00 12,3 11,7 9,9 21,4 20,3 6 4 9 5 ESE 1023,2 17 0 0,0
22.08.2019 06:00:00 12,4 11,8 8,5 21,5 20,4 5 3 8 4 E 1022,6 14 0 0,2
22.08.2019 05:00:00 12,5 11,9 8,5 21,5 20,4 7 4 8 5 SE 1022,7 14 0 0,0
22.08.2019 04:00:00 13,2 12,6 9,5 21,6 20,3 4 2 8 4 E 1022,5 15 0 0,0
22.08.2019 03:00:00 13,6 13,0 9,2 21,6 20,4 8 5 9 5 SE 1022,5 17 0 0,0
22.08.2019 02:00:00 13,7 13,1 9,8 21,7 20,4 4 2 13 7 E 1023,0 20 0 0,0
22.08.2019 01:00:00 14,9 13,4 10,3 21,7 20,4 9 5 10 6 ESE 1023,3 23 0 0,0
22.08.2019 00:00:00 14,7 13,2 11,1 21,7 20,4 5 3 8 5 E 1023,2 23 0 0,0
21.08.2019 23:00:00 16,0 14,7 11,4 21,6 20,4 4 2 8 4 SSE 1022,9 34 0 0,0
21.08.2019 22:00:00 17,6 15,0 12,7 21,6 20,4 3 2 5 3 NE 1022,4 36 0 0,0
21.08.2019 21:00:00 20,4 14,5 15,6 21,5 20,4 5 3 9 5 N 1021,4 43 30 0,0
21.08.2019 20:00:00 23,1 14,1 21,8 21,4 20,4 9 5 18 10 NNE 1020,8 49 60 0,0
21.08.2019 19:00:00 23,6 13,7 24,4 21,3 20,4 10 6 19 10 NE 1020,6 45 49 0,0
21.08.2019 18:00:00 24,7 13,3 29,0 21,2 20,4 8 5 19 10 NNE 1020,3 26 51 0,0
21.08.2019 17:00:00 23,8 14,5 29,8 21,1 20,4 8 4 20 11 NNE 1020,7 42 31 0,0
21.08.2019 16:00:00 24,3 12,9 33,4 21,1 20,4 11 6 23 12 N 1021,1 42 51 0,0
21.08.2019 15:00:00 24,0 15,8 38,5 21,0 20,4 11 6 22 12 NE 1021,4 21 58 0,0
21.08.2019 14:00:00 23,5 15,0 33,6 21,0 20,4 11 6 21 12 NNE 1021,6 44 57 0,0
21.08.2019 13:00:00 22,9 13,9 32,7 21,0 20,4 13 7 26 14 NE 1022,3 32 60 0,0
21.08.2019 12:00:00 22,3 15,2 25,3 21,1 20,4 16 9 26 14 ENE 1022,6 20 50 0,0
21.08.2019 11:00:00 20,5 15,9 19,1 21,1 20,4 7 4 18 10 ENE 1023,2 47 32 0,0
21.08.2019 10:00:00 17,2 15,0 17,0 21,2 20,4 2 1 11 6 S 1023,4 33 19 0,0
21.08.2019 09:00:00 14,8 13,8 14,2 21,3 20,4 3 2 12 7 ESE 1023,6 22 20 0,0
21.08.2019 08:00:00 13,3 12,8 11,4 21,4 20,4 4 2 10 5 ESE 1023,5 16 26 0,2
21.08.2019 07:00:00 12,7 12,2 8,9 21,5 20,4 4 2 10 6 S 1023,9 20 0 0,0
21.08.2019 06:00:00 12,4 12,1 9,0 21,5 20,4 4 2 10 5 E 1023,8 17 0 0,0
21.08.2019 05:00:00 12,0 11,5 9,0 21,6 20,4 5 3 9 5 SSE 1024,0 24 0 0,0
21.08.2019 04:00:00 12,5 12,2 9,3 21,6 20,4 3 1 11 6 SE 1024,3 22 0 0,0
21.08.2019 03:00:00 12,4 12,1 9,4 21,7 20,4 3 2 7 4 NE 1024,6 9 0 0,0
21.08.2019 02:00:00 13,2 12,7 10,2 21,7 20,4 4 2 7 4 SE 1025,0 18 0 0,0
21.08.2019 01:00:00 13,4 12,8 10,2 21,7 20,4 3 2 7 4 ENE 1025,2 9 0 0,0
21.08.2019 00:00:00 14,3 13,5 11,3 21,7 20,4 3 2 8 5 NE 1025,2 20 0 0,0
20.08.2019 23:00:00 14,9 13,8 12,0 21,7 20,4 2 1 8 4 NE 1025,1 17 0 0,0
20.08.2019 22:00:00 15,9 13,7 12,3 21,7 20,4 4 2 8 4 NE 1024,7 26 0 0,0
20.08.2019 21:00:00 18,9 14,4 15,8 21,6 20,4 5 3 11 6 E 1024,4 29 32 0,0
20.08.2019 20:00:00 20,4 12,4 19,0 21,6 20,4 9 5 20 11 NE 1024,1 30 43 0,0
20.08.2019 19:00:00 21,3 14,5 22,5 21,5 20,4 10 5 19 10 NE 1023,9 28 30 0,0
20.08.2019 18:00:00 22,0 13,9 25,9 21,4 20,4 10 5 21 12 NE 1024,0 29 49 0,0
20.08.2019 17:00:00 21,3 14,2 25,7 21,3 20,4 10 5 21 12 NE 1024,3 30 9 0,0
20.08.2019 16:00:00 21,7 15,3 31,2 21,3 20,4 9 5 26 14 NE 1024,1 34 54 0,0
20.08.2019 15:00:00 20,9 14,8 31,4 21,3 20,4 9 5 23 12 NE 1024,2 30 53 0,0
20.08.2019 14:00:00 19,3 14,8 25,9 21,4 20,4 9 5 20 11 N 1024,3 25 23 0,0
20.08.2019 13:00:00 18,3 15,7 22,8 21,4 20,4 11 6 20 11 NNW 1024,5 27 17 0,0
20.08.2019 12:00:00 16,4 14,9 16,2 21,5 20,4 5 3 11 6 ENE 1024,3 16 0 0,0
20.08.2019 11:00:00 15,0 14,7 15,3 21,6 20,4 8 4 17 9 NW 1024,4 23 0 0,2
20.08.2019 10:00:00 14,7 14,4 14,2 21,7 20,4 4 2 16 9 NNE 1023,6 9 0 3,6
20.08.2019 09:00:00 14,4 13,9 14,2 21,7 20,4 6 3 20 11 ENE 1023,0 3,0 0 5,3
20.08.2019 08:00:00 14,7 14,2 14,6 21,8 20,4 10 5 20 11 N 1022,8 3,5 0 6,0
20.08.2019 07:00:00 15,2 14,9 15,1 21,8 20,4 5 3 14 7 N 1021,8 2,8 0 1,6
20.08.2019 06:00:00 15,2 14,6 15,1 21,9 20,4 7 4 17 9 NE 1020,8 6 0 3,1
20.08.2019 05:00:00 15,9 15,4 15,7 21,9 20,4 8 4 14 7 E 1021,0 4,2 0 3,4
20.08.2019 04:00:00 16,4 15,6 16,2 22,0 20,4 3 1 10 6 ENE 1021,4 6 0 0,8
20.08.2019 03:00:00 16,6 15,3 16,5 22,0 20,4 7 4 10 5 WNW 1021,1 26 0 0,0
20.08.2019 02:00:00 17,0 15,3 16,6 22,0 20,4 4 2 10 6 NNW 1021,0 26 0 0,0
20.08.2019 01:00:00 17,2 15,2 16,7 22,1 20,4 2 1 9 5 NE 1021,2 29 0 0,0
20.08.2019 00:00:00 17,6 14,1 16,8 22,1 20,4 4 2 12 7 E 1021,5 33 0 0,0
19.08.2019 23:00:00 18,1 14,2 16,8 22,1 20,4 8 4 22 12 NE 1021,6 36 0 0,0
19.08.2019 22:00:00 18,1 14,4 17,0 22,1 20,4 10 5 18 10 NNE 1021,3 37 0 0,0
19.08.2019 21:00:00 18,6 14,7 17,7 22,1 20,4 5 3 14 8 N 1021,2 36 0 0,0
19.08.2019 20:00:00 19,2 14,9 18,6 22,1 20,4 7 4 20 11 NNE 1020,5 39 0 0,0
19.08.2019 19:00:00 19,9 14,3 20,2 22,0 20,4 10 5 18 10 NE 1020,0 19 0 0,0
19.08.2019 18:00:00 20,3 13,7 21,7 22,0 20,4 10 5 21 11 NNE 1020,3 40 0 0,0
19.08.2019 17:00:00 20,7 13,9 23,1 21,9 20,4 10 6 21 11 NNE 1020,6 16 0 0,0
19.08.2019 16:00:00 20,7 13,9 24,6 21,9 20,4 11 6 21 11 NNE 1020,6 41 0 0,0
19.08.2019 15:00:00 20,9 13,1 27,2 21,9 20,4 10 5 23 12 ENE 1020,7 50 0 0,0
19.08.2019 14:00:00 20,7 13,4 27,7 21,9 20,4 9 5 35 19 ENE 1020,6 45 11 0,0
19.08.2019 13:00:00 21,1 13,8 26,5 21,9 20,4 9 5 22 12 ESE 1020,5 26 23 0,0
19.08.2019 12:00:00 19,3 14,1 25,8 21,9 20,4 10 5 22 12 E 1020,7 39 4 0,0
19.08.2019 11:00:00 19,0 14,5 21,0 22,0 20,4 7 4 16 9 E 1020,8 36 8 0,0
19.08.2019 10:00:00 18,0 15,3 19,9 22,1 20,4 6 4 13 7 ESE 1020,5 36 1 0,0
19.08.2019 09:00:00 16,9 15,2 16,6 22,1 20,4 5 3 9 5 SE 1020,5 34 12 0,0
19.08.2019 08:00:00 16,4 15,6 16,0 22,1 20,4 4 2 9 5 SE 1020,5 27 0 0,0

tt = temperature
td = dewpoint
tt 5cm = temperature 5cm
tt -20cm = temperature -20cm
tt -100cm = temperature -100cm
ff = wind speed
fx = gusts
dd = wind direction
ppp = reduced air pressure
vv = visibility
sd = sunshine duration
rr = precipitation

Next stations